Location: Bédeille
(43.0872°N, 1.1041°E)
Time: 20:17:49
(UTC+00:00)

Spot 1 - Pass Details

Date: 03 February 2023
Orbit: 575 x 773 km, 98.8° (Epoch: 23 March)

Event Time Altitude Azimuth Distance (km) Brightness Sun altitude
Exits shadow 18:52:27 36° 43° (NE) 916 4.5 -18.9°
Maximum altitude 18:53:48 56° 101° (ESE) 692 3.9 -19.1°
Drops below altitude 10° 18:57:47 10° 181° (S) 1,882 6.6 -19.9°
Sets 18:59:57 0° 185° (S) 2,786 7.5 -20.3°
